Zurück zum Katalog

WESTPAC

AktivKommunikationSSO
NORAD 25398·PAYLOAD·🇦🇺 Australia

Gestartet Jul 10, 1998 von Baikonur Cosmodrome

Loading…

Nächste Überflüge (nächste 24 Stunden)

TLE

AktuellSource: CelesTrak SupGP

Epoche: Sep 13, 2026, 00:00 UTC

1 25398C 98043E   26256.00000000  .00000075  00000+0  33309-4 0  2561
2 25398  99.0239 244.1654 0000900  11.4933 270.2092 14.23057127    12

Verfolge WESTPAC in Echtzeit mit AllMySat

Download on the App Store